{"data":{"norad_id":63724,"intl_designator":"2025-088A","name":"KUIPER-00008","alt_names":[],"object_type":"PAYLOAD","status":"ACTIVE","operator":null,"country":"US","launch_date":"2025-04-28","launch_site_code":"AFETR","launch_vehicle":null,"mission":null,"orbit_class":"UNKNOWN","rcs_meters":null,"size_class":null,"mass_kg":null,"dimensions":null,"purposes":[],"wikipedia_slug":null,"has_3d_model":false,"image_url":null,"decayed_at":null,"tle_current":{"epoch":"2026-05-25T04:19:08.986368Z","epoch_age_seconds":70244,"freshness":"FRESH","line1":"1 63724U 25088A   26145.17996512  .00005304  00000+0  72478-3 0  9995","line2":"2 63724  51.8999 109.7687 0000946  89.0408 271.0663 14.79898939 59377","mean_motion":14.79898939,"eccentricity":9.46e-5,"inclination_deg":51.8999,"raan_deg":109.7687,"arg_perigee_deg":89.0408,"mean_anomaly_deg":271.0663,"bstar":0.00072478,"rev_number":5937,"period_min":97.303941644356,"perigee_km":628.9802173714,"apogee_km":630.30608937642,"semimajor_km":7007.7801533739,"source":"CELESTRAK","updated_at":"2026-05-25T13:38:03.923901Z"}}}